Back to catalog

SL-14 DEB

AlivePO
NORAD 18680·DEBRIS·🇷🇺 Russia

Launched Dec 18, 1986 from Plesetsk Cosmodrome

Loading…

Next Passes (next 24 hours)

TLE

FreshSource: Space-Track

Epoch: Sep 14, 2026, 12:17 UTC

1 18680U 86101L   26257.51225178  .00000627  00000-0  34260-3 0  9995
2 18680  82.5445 283.8774 0012630 290.1275  69.8541 14.10660727 29750

Track SL-14 DEB in real time with AllMySat

Download on the App Store